Powrót do katalogu

STARLINK-32881

AktywnyŁącznośćVLEO
NORAD 62997·PAYLOAD·🇺🇸 United States

Wystrzelony Feb 11, 2025 z Cape Canaveral Space Force Station

Loading…

Następne Przeloty (najbliższe 24 godziny)

TLE

ŚwieżeSource: CelesTrak SupGP

Epoka: Sep 15, 2026, 02:57 UTC

1 62997C 25031S   26258.12340278  .00040610  00000+0  14710-2 0  2587
2 62997  43.0014 153.3238 0001566 274.1787 273.8775 15.27556477    15

Śledź STARLINK-32881 w czasie rzeczywistym z AllMySat

Download on the App Store